Lake Meredith Weather Center

Moon Phase Calendar



Lake Meredith Water Level
Online Cameras

 


      

Current Conditions in Fritch
1/24/2021 6:58:05 AM

33°F
Feels Like 22
Clouds
Humidity
75%
Pressure
29.97"
Wind
11.5 mph (N)
Dew Point
27°F
UV Index
0/10 (Low)
Visibility
6 mi

Hourly Forecast

Date & Time Sun, Jan 24
6:00 AM
Sun, Jan 24
7:00 AM
Sun, Jan 24
8:00 AM
Sun, Jan 24
9:00 AM
Sun, Jan 24
10:00 AM
Sun, Jan 24
11:00 AM
Sun, Jan 24
12:00 PM
Sun, Jan 24
1:00 PM
Sun, Jan 24
2:00 PM
Sun, Jan 24
3:00 PM
Sun, Jan 24
4:00 PM
Sun, Jan 24
5:00 PM
Sun, Jan 24
6:00 PM
Sun, Jan 24
7:00 PM
Sun, Jan 24
8:00 PM
Sun, Jan 24
9:00 PM
Sun, Jan 24
10:00 PM
Sun, Jan 24
11:00 PM
Mon, Jan 25
12:00 AM
Mon, Jan 25
1:00 AM
Mon, Jan 25
2:00 AM
Mon, Jan 25
3:00 AM
Mon, Jan 25
4:00 AM
Mon, Jan 25
5:00 AM
Mon, Jan 25
6:00 AM
Mon, Jan 25
7:00 AM
Mon, Jan 25
8:00 AM
Mon, Jan 25
9:00 AM
Mon, Jan 25
10:00 AM
Mon, Jan 25
11:00 AM
Mon, Jan 25
12:00 PM
Mon, Jan 25
1:00 PM
Mon, Jan 25
2:00 PM
Mon, Jan 25
3:00 PM
Mon, Jan 25
4:00 PM
Mon, Jan 25
5:00 PM
Mon, Jan 25
6:00 PM
Mon, Jan 25
7:00 PM
Mon, Jan 25
8:00 PM
Mon, Jan 25
9:00 PM
Mon, Jan 25
10:00 PM
Mon, Jan 25
11:00 PM
Tue, Jan 26
12:00 AM
Tue, Jan 26
1:00 AM
Tue, Jan 26
2:00 AM
Tue, Jan 26
3:00 AM
Tue, Jan 26
4:00 AM
Tue, Jan 26
5:00 AM
Condition
Clouds

Clouds

Clouds

Clouds

Clouds

Clouds

Clouds

Clouds

Clouds

Clouds

Clouds

Clouds

Clouds

Rain

Rain

Rain

Rain

Rain

Rain

Rain

Rain

Rain

Clouds

Clouds

Clouds

Clear

Clear

Clear

Clear

Clear

Clear

Clouds

Clouds

Clouds

Clouds

Clouds

Clouds

Clear

Clear

Clear

Clear

Clear

Clear

Clear

Clear

Clear

Clear

Clear
Temperature 33°F34°F34°F35°F37°F40°F44°F47°F50°F53°F55°F54°F52°F50°F48°F47°F46°F48°F48°F48°F46°F44°F44°F44°F44°F43°F42°F44°F46°F49°F51°F52°F51°F49°F49°F48°F45°F41°F39°F37°F36°F35°F34°F33°F32°F32°F31°F30°F
Feels Like 22°F23°F24°F25°F28°F31°F36°F39°F42°F45°F46°F44°F41°F39°F37°F38°F40°F42°F45°F40°F41°F35°F30°F29°F28°F27°F26°F28°F32°F35°F37°F38°F37°F36°F38°F39°F34°F30°F30°F30°F29°F28°F27°F26°F25°F24°F23°F22°F
Cloudiness 90%94%89%84%87%88%85%63%31%21%15%17%31%100%91%84%80%84%87%97%89%69%52%42%34%0%0%0%0%0%0%47%46%38%32%30%25%0%0%0%0%0%0%0%0%0%0%0%
Visibility 6 mi6 mi6 mi6 mi6 mi6 mi6 mi6 mi6 mi6 mi6 mi6 mi6 mi6 mi6 mi6 mi6 mi6 mi6 mi6 mi6 mi6 mi6 mi6 mi6 mi6 mi6 mi6 mi6 mi6 mi6 mi6 mi6 mi6 mi6 mi6 mi6 mi6 mi6 mi6 mi6 mi6 mi6 mi6 mi6 mi6 mi6 mi6 mi
Precipitation 0%0%0%0%0%0%0%0%0%0%0%1%3%62%74%77%82%87%93%99%96%92%84%80%78%0%0%0%0%0%0%0%0%0%0%0%0%0%0%0%0%0%0%0%0%0%0%0%
Humidity 75%82%88%86%79%71%62%54%48%43%41%42%46%53%62%74%84%86%88%83%81%74%59%59%58%60%60%59%56%49%45%45%47%53%52%52%60%70%75%80%83%87%90%93%95%96%96%97%
Dew Point 27°F29°F31°F32°F32°F31°F31°F31°F31°F31°F31°F31°F32°F34°F36°F40°F42°F44°F45°F43°F41°F37°F29°F27°F25°F23°F23°F25°F29°F28°F28°F29°F32°F32°F31°F30°F30°F31°F31°F31°F30°F30°F29°F29°F28°F28°F28°F28°F
Pressure 29.97"29.97"30"30.03"30.03"30"29.97"29.88"29.83"29.77"29.74"29.71"29.71"29.74"29.71"29.68"29.65"29.62"29.59"29.56"29.53"29.53"29.53"29.5"29.53"29.53"29.56"29.59"29.59"29.59"29.62"29.59"29.59"29.59"29.59"29.62"29.65"29.71"29.74"29.77"29.8"29.83"29.83"29.85"29.85"29.85"29.85"29.85"
Wind Speed 12.2 mph12.3 mph11.4 mph11.9 mph10.6 mph9.2 mph8 mph8 mph7.9 mph8.6 mph9 mph11.4 mph12.5 mph13.2 mph14.8 mph11.7 mph8.8 mph7.4 mph4.2 mph12.2 mph6.7 mph10.4 mph18.4 mph19.9 mph21 mph20.8 mph22.2 mph21.3 mph18.8 mph18.2 mph18 mph17.7 mph17.8 mph16.4 mph12.6 mph10.6 mph11.9 mph11.6 mph8.4 mph6.2 mph5.9 mph6.6 mph6.2 mph5.9 mph6.2 mph6.2 mph6.6 mph7.5 mph
Wind
Direction
24°
NNE
27°
NNE
28°
NNE
35°
NE
46°
NE
65°
ENE
80°
E
88°
E
101°
E
106°
ESE
97°
E
98°
E
109°
ESE
121°
ESE
117°
ESE
119°
ESE
111°
ESE
121°
ESE
148°
SSE
231°
SW
217°
SW
227°
SW
234°
SW
250°
WSW
253°
WSW
255°
WSW
261°
W
280°
W
294°
WNW
292°
WNW
294°
WNW
302°
WNW
318°
NW
330°
NNW
330°
NNW
348°
NNW
24°
NNE
39°
NE
51°
NE
58°
ENE
57°
ENE
49°
NE
65°
ENE
77°
ENE
80°
E
74°
ENE
76°
ENE
88°
E

Daily Forecast

Date High Low Precip. Humidity
Today
Jan 24

Rain
55 °F
33 °F
87%
62%
Monday
Jan 25

Rain
52 °F
35 °F
99%
45%
Tuesday
Jan 26

Clouds
53 °F
30 °F
3%
45%
Wednesday
Jan 27

Clouds
45 °F
26 °F
0%
69%
Thursday
Jan 28

Clouds
56 °F
33 °F
0%
43%
Friday
Jan 29

Clouds
69 °F
40 °F
0%
28%
Saturday
Jan 30

Clouds
66 °F
49 °F
22%
31%
Sunday
Jan 31

Clear
60 °F
38 °F
0%
38%
Monday
Feb 1

Clouds
67 °F
46 °F
0%
29%
Tuesday
Feb 2

Clouds
73 °F
55 °F
0%
26%
Wednesday
Feb 3

Clear
63 °F
51 °F
0%
28%
Thursday
Feb 4

Clouds
44 °F
30 °F
0%
60%
Friday
Feb 5

Clouds
54 °F
38 °F
0%
47%
Saturday
Feb 6

Snow
27 °F
16 °F
76%
87%
Sunday
Feb 7

Snow
32 °F
17 °F
20%
85%
Monday
Feb 8

Clear
47 °F
19 °F
0%
63%


Temperature 8-14 Day Outlook



Precipitation 8-14 Day Outlook




Quick Links
Lake Meredith News
Lake Meredith Photos
Lake Meredith Videos




About Us
Contact Us
Site Map
Search Site
Advertise With Us
   
Meredith.USLakes.info
THE LAKE MEREDITH WEBSITE

Copyright 2021, Lakes Online
Privacy    |    Legal